"Period start","avg(HW err(1)/warn(2) (#))","avg(Visibility (m))","avg(Weather code (#))","avg(Precip intensity (mm/h))","min(HW err(1)/warn(2) (#))","max(HW err(1)/warn(2) (#))","std(HW err(1)/warn(2) (#))","med(HW err(1)/warn(2) (#))","min(Visibility (m))","max(Visibility (m))","std(Visibility (m))","med(Visibility (m))","min(Weather code (#))","max(Weather code (#))","std(Weather code (#))","med(Weather code (#))","min(Precip intensity (mm/h))","max(Precip intensity (mm/h))","std(Precip intensity (mm/h))","med(Precip intensity (mm/h))"
2014-05-22 00:00:00,0,34802,0,0.00,0,0,0,0,22795,49221,8821,34070,0,0,0,0,0.00,0.00,0.00,0.00
2014-05-22 00:10:00,0,39741,0,0.00,0,0,0,0,28122,50000,6371,38005,0,0,0,0,0.00,0.00,0.00,0.00
2014-05-22 00:20:00,0,41625,0,0.00,0,0,0,0,32435,50000,6099,40050,0,0,0,0,0.00,0.00,0.00,0.00
2014-05-22 00:30:00,0,41602,0,0.00,0,0,0,0,33971,49061,5370,42052,0,0,0,0,0.00,0.00,0.00,0.00
2014-05-22 00:40:00,0,34967,0,0.00,0,0,0,0,22724,50000,7257,32822,0,0,0,0,0.00,0.00,0.00,0.00
2014-05-22 00:50:00,0,40607,0,0.00,0,0,0,0,31765,50000,7040,38826,0,0,0,0,0.00,0.00,0.00,0.00
2014-05-22 01:00:00,0,37601,0,0.00,0,0,0,0,24521,50000,8572,39068,0,0,0,0,0.00,0.00,0.00,0.00
2014-05-22 01:10:00,0,38761,0,0.00,0,0,0,0,33048,43634,3363,39858,0,0,0,0,0.00,0.00,0.00,0.00
2014-05-22 01:20:00,0,32180,0,0.00,0,0,0,0,22473,41705,5406,33080,0,0,0,0,0.00,0.00,0.00,0.00
2014-05-22 01:30:00,0,27636,0,0.00,0,0,0,0,21665,36094,4230,27528,0,0,0,0,0.00,0.00,0.00,0.00
2014-05-22 01:40:00,0,39356,0,0.00,0,0,0,0,28200,50000,6809,39026,0,0,0,0,0.00,0.00,0.00,0.00
2014-05-22 01:50:00,0,46882,0,0.00,0,0,0,0,28746,50000,6170,49026,0,0,0,0,0.00,0.00,0.00,0.00
2014-05-22 02:00:00,0,38132,0,0.00,0,0,0,0,26052,50000,7780,35098,0,0,0,0,0.00,0.00,0.00,0.00
2014-05-22 02:10:00,0,41682,0,0.00,0,0,0,0,34192,49982,5141,40262,0,0,0,0,0.00,0.00,0.00,0.00
2014-05-22 02:20:00,0,38261,0,0.00,0,0,0,0,29232,50000,7029,38710,0,0,0,0,0.00,0.00,0.00,0.00
2014-05-22 02:30:00,0,37754,0,0.00,0,0,0,0,27443,50000,7290,36055,0,0,0,0,0.00,0.00,0.00,0.00
2014-05-22 02:40:00,0,37840,0,0.00,0,0,0,0,29643,50000,6815,36921,0,0,0,0,0.00,0.00,0.00,0.00
2014-05-22 02:50:00,0,39585,0,0.00,0,0,0,0,29070,50000,6716,37670,0,0,0,0,0.00,0.00,0.00,0.00
2014-05-22 03:00:00,0,37121,0,0.00,0,0,0,0,27787,48724,5157,37022,0,0,0,0,0.00,0.00,0.00,0.00
2014-05-22 03:10:00,0,37686,0,0.00,0,0,0,0,23169,50000,7750,36941,0,0,0,0,0.00,0.00,0.00,0.00
2014-05-22 03:20:00,0,43182,0,0.00,0,0,0,0,31863,50000,6888,46382,0,0,0,0,0.00,0.00,0.00,0.00
2014-05-22 03:30:00,0,46321,0,0.00,0,0,0,0,41412,50000,3724,46860,0,0,0,0,0.00,0.00,0.00,0.00
2014-05-22 03:40:00,0,39641,0,0.00,0,0,0,0,33398,50000,5618,38348,0,0,0,0,0.00,0.00,0.00,0.00
2014-05-22 03:50:00,0,43395,0,0.00,0,0,0,0,28919,50000,6829,44316,0,0,0,0,0.00,0.00,0.00,0.00
2014-05-22 04:00:00,0,39913,0,0.00,0,0,0,0,29473,50000,7147,39431,0,0,0,0,0.00,0.00,0.00,0.00
2014-05-22 04:10:00,0,40879,0,0.00,0,0,0,0,29113,48807,6331,41156,0,0,0,0,0.00,0.00,0.00,0.00
2014-05-22 04:20:00,0,40350,0,0.00,0,0,0,0,31329,50000,6503,41447,0,0,0,0,0.00,0.00,0.00,0.00
2014-05-22 04:30:00,0,42995,0,0.00,0,0,0,0,35292,50000,6117,42038,0,0,0,0,0.00,0.00,0.00,0.00
2014-05-22 04:40:00,0,36826,0,0.00,0,0,0,0,21451,49231,7438,35956,0,0,0,0,0.00,0.00,0.00,0.00
2014-05-22 04:50:00,0,45588,0,0.00,0,0,0,0,37880,50000,4255,46915,0,0,0,0,0.00,0.00,0.00,0.00
2014-05-22 05:00:00,0,38598,0,0.00,0,0,0,0,27982,49960,6547,37048,0,0,0,0,0.00,0.00,0.00,0.00
2014-05-22 05:10:00,0,34111,0,0.00,0,0,0,0,24545,40858,5126,33937,0,0,0,0,0.00,0.00,0.00,0.00
2014-05-22 05:20:00,0,36206,0,0.00,0,0,0,0,26377,50000,6319,34420,0,0,0,0,0.00,0.00,0.00,0.00
2014-05-22 05:30:00,0,32822,0,0.00,0,0,0,0,25150,43043,5189,33202,0,0,0,0,0.00,0.00,0.00,0.00
2014-05-22 05:40:00,0,35269,0,0.00,0,0,0,0,26320,44527,5476,33961,0,0,0,0,0.00,0.00,0.00,0.00
2014-05-22 05:50:00,0,41762,0,0.00,0,0,0,0,33290,50000,5915,40735,0,0,0,0,0.00,0.00,0.00,0.00
2014-05-22 06:00:00,0,44353,0,0.00,0,0,0,0,34978,50000,5498,46530,0,0,0,0,0.00,0.00,0.00,0.00
2014-05-22 06:10:00,0,42400,0,0.00,0,0,0,0,34704,47870,4863,44562,0,0,0,0,0.00,0.00,0.00,0.00
2014-05-22 06:20:00,0,49623,0,0.00,0,0,0,0,47441,50000,812,50000,0,0,0,0,0.00,0.00,0.00,0.00
2014-05-22 06:30:00,0,41727,0,0.00,0,0,0,0,34841,50000,5639,40960,0,0,0,0,0.00,0.00,0.00,0.00
2014-05-22 06:40:00,0,40188,0,0.00,0,0,0,0,27137,50000,7467,42458,0,0,0,0,0.00,0.00,0.00,0.00
2014-05-22 06:50:00,0,45335,0,0.00,0,0,0,0,38388,50000,3711,46456,0,0,0,0,0.00,0.00,0.00,0.00
2014-05-22 07:00:00,0,42984,0,0.00,0,0,0,0,32998,50000,6595,44006,0,0,0,0,0.00,0.00,0.00,0.00
2014-05-22 07:10:00,0,47262,0,0.00,0,0,0,0,44124,50000,1732,46797,0,0,0,0,0.00,0.00,0.00,0.00
2014-05-22 07:20:00,0,37900,0,0.00,0,0,0,0,28683,48612,6055,37830,0,0,0,0,0.00,0.00,0.00,0.00
2014-05-22 07:30:00,0,48084,0,0.00,0,0,0,0,38479,50000,3422,49779,0,0,0,0,0.00,0.00,0.00,0.00
2014-05-22 07:40:00,0,41550,0,0.00,0,0,0,0,31883,50000,6510,40915,0,0,0,0,0.00,0.00,0.00,0.00
2014-05-22 07:50:00,0,43816,0,0.00,0,0,0,0,35541,50000,4666,43930,0,0,0,0,0.00,0.00,0.00,0.00
2014-05-22 08:00:00,0,43132,0,0.00,0,0,0,0,36436,46989,2991,43811,0,0,0,0,0.00,0.00,0.00,0.00
2014-05-22 08:10:00,0,44626,0,0.00,0,0,0,0,38308,50000,3807,44741,0,0,0,0,0.00,0.00,0.00,0.00
2014-05-22 08:20:00,0,46257,0,0.00,0,0,0,0,37560,50000,3984,47887,0,0,0,0,0.00,0.00,0.00,0.00
2014-05-22 08:30:00,0,42308,0,0.00,0,0,0,0,29145,50000,7168,43547,0,0,0,0,0.00,0.00,0.00,0.00
2014-05-22 08:40:00,0,43188,0,0.00,0,0,0,0,37979,50000,4025,42540,0,0,0,0,0.00,0.00,0.00,0.00
2014-05-22 08:50:00,0,48480,0,0.00,0,0,0,0,44693,50000,1633,48774,0,0,0,0,0.00,0.00,0.00,0.00
2014-05-22 09:00:00,0,46639,0,0.00,0,0,0,0,43572,50000,2249,46762,0,0,0,0,0.00,0.00,0.00,0.00
2014-05-22 09:10:00,0,37995,0,0.00,0,0,0,0,32146,46426,4687,37004,0,0,0,0,0.00,0.00,0.00,0.00
2014-05-22 09:20:00,0,45521,0,0.00,0,0,0,0,37438,50000,3773,46467,0,0,0,0,0.00,0.00,0.00,0.00
2014-05-22 09:30:00,0,43095,0,0.00,0,0,0,0,33447,50000,5124,43818,0,0,0,0,0.00,0.00,0.00,0.00
2014-05-22 09:40:00,0,44944,0,0.00,0,0,0,0,37118,50000,4080,45548,0,0,0,0,0.00,0.00,0.00,0.00
2014-05-22 09:50:00,0,41870,0,0.00,0,0,0,0,33618,50000,6080,41664,0,0,0,0,0.00,0.00,0.00,0.00
2014-05-22 10:00:00,0,49456,0,0.00,0,0,0,0,45782,50000,1248,50000,0,0,0,0,0.00,0.00,0.00,0.00
2014-05-22 10:10:00,0,48666,0,0.00,0,0,0,0,45975,50000,1310,48676,0,0,0,0,0.00,0.00,0.00,0.00
2014-05-22 10:20:00,0,45296,0,0.00,0,0,0,0,39881,50000,3441,46097,0,0,0,0,0.00,0.00,0.00,0.00
2014-05-22 10:30:00,0,44566,0,0.00,0,0,0,0,31091,50000,6226,46560,0,0,0,0,0.00,0.00,0.00,0.00
2014-05-22 10:40:00,0,46685,0,0.00,0,0,0,0,29443,50000,6197,49898,0,0,0,0,0.00,0.00,0.00,0.00
2014-05-22 10:50:00,0,43141,0,0.00,0,0,0,0,39009,48888,3212,42368,0,0,0,0,0.00,0.00,0.00,0.00
2014-05-22 11:00:00,0,35224,0,0.00,0,0,0,0,29689,43837,4425,36680,0,0,0,0,0.00,0.00,0.00,0.00
2014-05-22 11:10:00,0,39434,0,0.00,0,0,0,0,27308,48616,6184,38525,0,0,0,0,0.00,0.00,0.00,0.00
2014-05-22 11:20:00,0,40406,0,0.00,0,0,0,0,21689,50000,8936,42648,0,0,0,0,0.00,0.00,0.00,0.00
2014-05-22 11:30:00,0,40492,0,0.00,0,0,0,0,26716,50000,9633,43527,0,0,0,0,0.00,0.00,0.00,0.00
2014-05-22 11:40:00,1,34012,0,0.00,0,2,1,2,18070,43380,8584,36615,0,0,0,0,0.00,0.00,0.00,0.00
2014-05-22 11:50:00,1,32543,0,0.00,0,2,1,2,16049,50000,10502,30812,0,0,0,0,0.00,0.00,0.00,0.00
2014-05-22 12:00:00,0,39806,0,0.00,0,0,0,0,25191,50000,7947,40666,0,0,0,0,0.00,0.00,0.00,0.00
2014-05-22 12:10:00,0,47313,0,0.00,0,0,0,0,42007,50000,3194,49296,0,0,0,0,0.00,0.00,0.00,0.00
2014-05-22 12:20:00,0,48356,0,0.00,0,0,0,0,45100,50000,1482,48872,0,0,0,0,0.00,0.00,0.00,0.00
2014-05-22 12:30:00,0,42744,0,0.00,0,0,0,0,32165,49087,4975,44294,0,0,0,0,0.00,0.00,0.00,0.00
2014-05-22 12:40:00,0,48864,0,0.00,0,0,0,0,45841,50000,1489,49634,0,0,0,0,0.00,0.00,0.00,0.00
2014-05-22 12:50:00,0,46751,0,0.00,0,0,0,0,42093,50000,2745,47284,0,0,0,0,0.00,0.00,0.00,0.00
2014-05-22 13:00:00,0,47496,0,0.00,0,0,0,0,36855,50000,3953,49410,0,0,0,0,0.00,0.00,0.00,0.00
2014-05-22 13:10:00,0,46188,0,0.00,0,0,0,0,39149,50000,3523,46880,0,0,0,0,0.00,0.00,0.00,0.00
2014-05-22 13:20:00,0,48362,0,0.00,0,0,0,0,45121,50000,1773,49054,0,0,0,0,0.00,0.00,0.00,0.00
2014-05-22 13:30:00,0,49536,0,0.00,0,0,0,0,46517,50000,1060,50000,0,0,0,0,0.00,0.00,0.00,0.00
2014-05-22 13:40:00,0,49831,0,0.00,0,0,0,0,48308,50000,508,50000,0,0,0,0,0.00,0.00,0.00,0.00
2014-05-22 13:50:00,0,48698,0,0.00,0,0,0,0,44856,50000,1703,49344,0,0,0,0,0.00,0.00,0.00,0.00
2014-05-22 14:00:00,0,49880,0,0.00,0,0,0,0,48797,50000,361,50000,0,0,0,0,0.00,0.00,0.00,0.00
2014-05-22 14:10:00,0,50000,0,0.00,0,0,0,0,50000,50000,0,50000,0,0,0,0,0.00,0.00,0.00,0.00
2014-05-22 14:20:00,0,50000,0,0.00,0,0,0,0,50000,50000,0,50000,0,0,0,0,0.00,0.00,0.00,0.00
2014-05-22 14:30:00,0,50000,0,0.00,0,0,0,0,50000,50000,0,50000,0,0,0,0,0.00,0.00,0.00,0.00
2014-05-22 14:40:00,0,50000,0,0.00,0,0,0,0,50000,50000,0,50000,0,0,0,0,0.00,0.00,0.00,0.00
2014-05-22 14:50:00,0,50000,0,0.00,0,0,0,0,50000,50000,0,50000,0,0,0,0,0.00,0.00,0.00,0.00
2014-05-22 15:00:00,0,50000,0,0.00,0,0,0,0,50000,50000,0,50000,0,0,0,0,0.00,0.00,0.00,0.00
2014-05-22 15:10:00,1,50000,0,0.00,0,2,1,2,50000,50000,0,50000,0,0,0,0,0.00,0.00,0.00,0.00
2014-05-22 15:20:00,1,50000,0,0.00,0,2,1,2,50000,50000,0,50000,0,0,0,0,0.00,0.00,0.00,0.00
2014-05-22 15:30:00,2,50000,0,0.00,0,2,1,2,50000,50000,0,50000,0,0,0,0,0.00,0.00,0.00,0.00
2014-05-22 15:40:00,2,49989,0,0.00,0,2,1,2,49888,50000,34,50000,0,0,0,0,0.00,0.00,0.00,0.00
2014-05-22 15:50:00,0,50000,0,0.00,0,2,1,0,50000,50000,0,50000,0,0,0,0,0.00,0.00,0.00,0.00
2014-05-22 16:00:00,0,50000,0,0.00,0,0,0,0,50000,50000,0,50000,0,0,0,0,0.00,0.00,0.00,0.00
2014-05-22 16:10:00,0,50000,0,0.00,0,0,0,0,50000,50000,0,50000,0,0,0,0,0.00,0.00,0.00,0.00
2014-05-22 16:20:00,0,50000,0,0.00,0,0,0,0,50000,50000,0,50000,0,0,0,0,0.00,0.00,0.00,0.00
2014-05-22 16:30:00,0,50000,0,0.00,0,0,0,0,50000,50000,0,50000,0,0,0,0,0.00,0.00,0.00,0.00
2014-05-22 16:40:00,0,50000,0,0.00,0,0,0,0,50000,50000,0,50000,0,0,0,0,0.00,0.00,0.00,0.00
2014-05-22 16:50:00,0,50000,0,0.00,0,0,0,0,50000,50000,0,50000,0,0,0,0,0.00,0.00,0.00,0.00
2014-05-22 17:00:00,0,49748,0,0.00,0,0,0,0,47509,50000,746,50000,0,0,0,0,0.00,0.00,0.00,0.00
2014-05-22 17:10:00,0,49126,0,0.00,0,0,0,0,46374,50000,1446,50000,0,0,0,0,0.00,0.00,0.00,0.00
2014-05-22 17:20:00,0,42792,0,0.00,0,2,1,0,37841,48484,3609,44126,0,0,0,0,0.00,0.00,0.00,0.00
2014-05-22 17:30:00,1,48252,0,0.00,0,2,1,0,44324,50000,1871,48753,0,0,0,0,0.00,0.00,0.00,0.00
2014-05-22 17:40:00,0,43310,0,0.00,0,2,1,0,32726,50000,6250,44264,0,0,0,0,0.00,0.00,0.00,0.00
2014-05-22 17:50:00,2,49777,0,0.00,2,2,0,2,47771,50000,669,50000,0,0,0,0,0.00,0.00,0.00,0.00
2014-05-22 18:00:00,1,49439,0,0.00,0,2,1,0,45719,50000,1280,50000,0,0,0,0,0.00,0.00,0.00,0.00
2014-05-22 18:10:00,0,49947,0,0.00,0,0,0,0,49706,50000,107,50000,0,0,0,0,0.00,0.00,0.00,0.00
2014-05-22 18:20:00,0,47512,0,0.00,0,0,0,0,41630,50000,3045,49234,0,0,0,0,0.00,0.00,0.00,0.00
2014-05-22 18:30:00,0,49341,0,0.00,0,2,1,0,45719,50000,1292,50000,0,0,0,0,0.00,0.00,0.00,0.00
2014-05-22 18:40:00,0,49760,0,0.00,0,2,1,0,48329,50000,524,50000,0,0,0,0,0.00,0.00,0.00,0.00
2014-05-22 18:50:00,0,49986,0,0.00,0,0,0,0,49858,50000,43,50000,0,0,0,0,0.00,0.00,0.00,0.00
2014-05-22 19:00:00,0,47644,0,0.00,0,0,0,0,42617,50000,3027,50000,0,0,0,0,0.00,0.00,0.00,0.00
2014-05-22 19:10:00,0,49193,0,0.00,0,0,0,0,45122,50000,1511,50000,0,0,0,0,0.00,0.00,0.00,0.00
2014-05-22 19:20:00,0,48763,0,0.00,0,0,0,0,46166,50000,1420,49508,0,0,0,0,0.00,0.00,0.00,0.00
2014-05-22 19:30:00,0,48448,0,0.00,0,0,0,0,45391,50000,1656,48958,0,0,0,0,0.00,0.00,0.00,0.00
2014-05-22 19:40:00,0,48899,0,0.00,0,0,0,0,44829,50000,1684,50000,0,0,0,0,0.00,0.00,0.00,0.00
2014-05-22 19:50:00,0,48435,0,0.00,0,0,0,0,40281,50000,3072,50000,0,0,0,0,0.00,0.00,0.00,0.00
2014-05-22 20:00:00,0,49056,0,0.00,0,0,0,0,46505,50000,1219,49674,0,0,0,0,0.00,0.00,0.00,0.00
2014-05-22 20:10:00,0,47277,0,0.00,0,0,0,0,41912,50000,2526,47478,0,0,0,0,0.00,0.00,0.00,0.00
2014-05-22 20:20:00,0,47787,0,0.00,0,0,0,0,41694,50000,3147,49639,0,0,0,0,0.00,0.00,0.00,0.00
2014-05-22 20:30:00,0,45875,0,0.00,0,0,0,0,35382,50000,4810,47884,0,0,0,0,0.00,0.00,0.00,0.00
2014-05-22 20:40:00,0,48972,0,0.00,0,0,0,0,41777,50000,2475,50000,0,0,0,0,0.00,0.00,0.00,0.00
2014-05-22 20:50:00,0,48290,0,0.00,0,0,0,0,44202,50000,2052,48987,0,0,0,0,0.00,0.00,0.00,0.00
2014-05-22 21:00:00,0,48144,0,0.00,0,0,0,0,42697,50000,2563,49152,0,0,0,0,0.00,0.00,0.00,0.00
2014-05-22 21:10:00,0,49252,0,0.00,0,0,0,0,45670,50000,1399,50000,0,0,0,0,0.00,0.00,0.00,0.00
2014-05-22 21:20:00,0,46668,0,0.00,0,0,0,0,41958,50000,2275,46802,0,0,0,0,0.00,0.00,0.00,0.00
2014-05-22 21:30:00,0,49133,0,0.00,0,0,0,0,46647,50000,1326,50000,0,0,0,0,0.00,0.00,0.00,0.00
2014-05-22 21:40:00,0,42316,0,0.00,0,0,0,0,32266,50000,5781,44115,0,0,0,0,0.00,0.00,0.00,0.00
2014-05-22 21:50:00,0,47732,0,0.00,0,0,0,0,35221,50000,4517,50000,0,0,0,0,0.00,0.00,0.00,0.00
2014-05-22 22:00:00,0,46547,0,0.00,0,0,0,0,40071,50000,3094,47454,0,0,0,0,0.00,0.00,0.00,0.00
2014-05-22 22:10:00,0,44988,0,0.00,0,0,0,0,27879,50000,7209,48254,0,0,0,0,0.00,0.00,0.00,0.00
2014-05-22 22:20:00,0,44456,0,0.00,0,0,0,0,37372,50000,4296,44084,0,0,0,0,0.00,0.00,0.00,0.00
2014-05-22 22:30:00,0,44082,0,0.00,0,0,0,0,40651,48895,2583,43480,0,0,0,0,0.00,0.00,0.00,0.00
2014-05-22 22:40:00,0,45181,0,0.00,0,0,0,0,33844,50000,5036,45384,0,0,0,0,0.00,0.00,0.00,0.00
2014-05-22 22:50:00,0,45288,0,0.00,0,0,0,0,30218,50000,5955,47135,0,0,0,0,0.00,0.00,0.00,0.00
2014-05-22 23:00:00,0,49398,0,0.00,0,0,0,0,46941,50000,1032,50000,0,0,0,0,0.00,0.00,0.00,0.00
2014-05-22 23:10:00,0,38372,0,0.00,0,0,0,0,27256,50000,6373,37571,0,0,0,0,0.00,0.00,0.00,0.00
2014-05-22 23:20:00,0,42924,0,0.00,0,0,0,0,32468,50000,6339,44252,0,0,0,0,0.00,0.00,0.00,0.00
2014-05-22 23:30:00,1,46644,0,0.00,0,2,1,0,37844,50000,3641,46980,0,0,0,0,0.00,0.00,0.00,0.00
2014-05-22 23:40:00,2,40363,0,0.00,2,2,0,2,28752,47740,5805,42139,0,0,0,0,0.00,0.00,0.00,0.00
2014-05-22 23:50:00,2,41876,0,0.00,2,2,0,2,33254,49606,6276,43080,0,0,0,0,0.00,0.00,0.00,0.00
